Butler, GA

10:01 PM EST on January 24, 2017 (GMT -0500)
Butler

Weather History for K6A1 - October, 2012

Change the Weather History Date:

Friday, October 26, 2012

  Actual Average (KMCN) Record (KMCN)
Temperature  
Mean Temperature 73 °F -  
Max Temperature 86 °F 76 °F 88 °F (1919)
Min Temperature 60 °F 48 °F 29 °F (1965)
Cooling Degree Days 8    
Growing Degree Days 23 (Base 50)    
Moisture  
Dew Point 61 °F    
Average Humidity 73    
Maximum Humidity 100    
Minimum Humidity 33    
Precipitation  
Precipitation 0.00 in - - ()
Sea Level Pressure  
Sea Level Pressure 29.97 in    
Wind  
Wind Speed 4 mph ()    
Max Wind Speed 12 mph    
Max Gust Speed 16 mph    
Visibility 9.0 miles    
Events      
Averages and records for this station are not official NWS values.
T = Trace of Precipitation, MM = Missing Value Source: Averaged Metar Reports

Daily Weather History Graph

Daily Weather History Graph

Search for Another Location

Airport or City:

Trip Planner

Search our weather history database for the weather conditions in past years. The results will help you decide how hot, cold, wet, or windy it might be!

Date:

Astronomy

Oct. 26, 2012 Rise Set
Actual Time 7:49 AM EDT 6:51 PM EDT
Civil Twilight 7:24 AM EDT 7:16 PM EDT
Nautical Twilight 6:55 AM EDT 7:45 PM EDT
Astronomical Twilight 6:27 AM EDT 8:14 PM EDT
Moon 5:00 PM EDT (10/26) 4:53 AM EDT (10/26)
Length of Visible Light 11h 52m
Length of Day
11h 01m
Waxing Gibbous, 91% of the Moon is Illuminated
Oct 26
Waxing Gibbous
Oct 29
Full
Nov 6
Last Quarter
Nov 13
New
Nov 20
First Quarter

Hourly Weather History & Observations

Time (EDT) Temp. Heat Index Dew Point Humidity Pressure Visibility Wind Dir Wind Speed Gust Speed Precip Events Conditions
12:15 AM 69.8 °F - 62.6 °F 78% 30.02 in 10.0 mi ESE 3.5 mph - N/A   Unknown
12:35 AM 69.8 °F - 62.6 °F 78% 30.02 in 10.0 mi Calm Calm - N/A   Unknown
1:55 AM 68.0 °F - 64.4 °F 88% 30.02 in 10.0 mi Calm Calm - N/A   Unknown
2:15 AM 68.0 °F - 64.4 °F 88% 30.01 in 10.0 mi Calm Calm - N/A   Unknown
2:35 AM 68.0 °F - 64.4 °F 88% 30.01 in 10.0 mi Calm Calm - N/A   Unknown
2:55 AM 66.2 °F - 64.4 °F 94% 30.00 in 10.0 mi Calm Calm - N/A   Unknown
3:15 AM 64.4 °F - 64.4 °F 100% 30.00 in 10.0 mi Calm Calm - N/A   Unknown
3:35 AM 62.6 °F - 62.6 °F 100% 30.00 in 10.0 mi Calm Calm - N/A   Unknown
3:55 AM 64.4 °F - 64.4 °F 100% 30.00 in 10.0 mi North 3.5 mph - N/A   Unknown
4:15 AM 64.4 °F - 64.4 °F 100% 30.00 in 10.0 mi North 4.6 mph - N/A   Unknown
4:35 AM 64.4 °F - 64.4 °F 100% 30.00 in 10.0 mi North 3.5 mph - N/A   Unknown
4:55 AM 64.4 °F - 64.4 °F 100% 30.00 in 10.0 mi North 4.6 mph - N/A   Unknown
5:15 AM 64.4 °F - 64.4 °F 100% 30.00 in 10.0 mi North 4.6 mph - N/A   Unknown
5:35 AM 62.6 °F - 62.6 °F 100% 30.00 in 7.0 mi North 3.5 mph - N/A   Unknown
5:55 AM 62.6 °F - 62.6 °F 100% 30.00 in 7.0 mi NNE 3.5 mph - N/A   Unknown
6:35 AM 62.6 °F - 62.6 °F 100% 30.00 in 5.0 mi Calm Calm - N/A   Mist
6:55 AM 62.6 °F - 62.6 °F 100% 30.00 in 7.0 mi Calm Calm - N/A   Unknown
7:15 AM 62.6 °F - 62.6 °F 100% 30.00 in 5.0 mi North 3.5 mph - N/A   Mist
7:35 AM 60.8 °F - 60.8 °F 100% 30.00 in 2.5 mi North 3.5 mph - N/A   Mist
7:55 AM 60.8 °F - 60.8 °F 100% 30.00 in 2.5 mi North 5.8 mph - N/A   Mist
8:15 AM 62.6 °F - 62.6 °F 100% 30.02 in 2.5 mi NNE 4.6 mph - N/A   Mist
8:35 AM 62.6 °F - 62.6 °F 100% 30.02 in 1.8 mi North 4.6 mph - N/A   Mist
8:55 AM 62.6 °F - 62.6 °F 100% 30.03 in 4.0 mi North 5.8 mph - N/A   Mist
9:15 AM 64.4 °F - 64.4 °F 100% 30.04 in 5.0 mi NNE 6.9 mph - N/A   Mist
9:35 AM 64.4 °F - 64.4 °F 100% 30.04 in 7.0 mi NE 5.8 mph - N/A   Unknown
9:55 AM 66.2 °F - 66.2 °F 100% 30.04 in 10.0 mi NE 6.9 mph - N/A   Unknown
10:15 AM 68.0 °F - 68.0 °F 100% 30.05 in 10.0 mi NE 3.5 mph - N/A   Unknown
10:35 AM 69.8 °F - 68.0 °F 94% 30.06 in 10.0 mi East 3.5 mph - N/A   Unknown
10:55 AM 71.6 °F - 68.0 °F 88% 30.05 in 10.0 mi East 6.9 mph - N/A   Unknown
11:15 AM 73.4 °F - 68.0 °F 83% 30.05 in 10.0 mi NE 5.8 mph - N/A   Unknown
11:35 AM 75.2 °F - 68.0 °F 78% 30.04 in 10.0 mi ENE 6.9 mph - N/A   Unknown
11:55 AM 77.0 °F - 66.2 °F 69% 30.04 in 10.0 mi East 5.8 mph - N/A   Unknown
12:15 PM 80.6 °F 82.3 °F 64.4 °F 58% 30.03 in 10.0 mi East 9.2 mph - N/A   Unknown
12:35 PM 80.6 °F 81.8 °F 62.6 °F 54% 30.02 in 10.0 mi East 9.2 mph - N/A   Unknown
12:55 PM 80.6 °F 81.8 °F 62.6 °F 54% 30.01 in 10.0 mi East 5.8 mph - N/A   Unknown
1:15 PM 80.6 °F 81.5 °F 60.8 °F 51% 30.00 in 10.0 mi ENE 11.5 mph - N/A   Unknown
1:35 PM 82.4 °F 82.9 °F 60.8 °F 48% 29.98 in 10.0 mi ENE 9.2 mph 16.1 mph N/A   Unknown
1:55 PM 82.4 °F 82.5 °F 59.0 °F 45% 29.97 in 10.0 mi East 8.1 mph 16.1 mph N/A   Unknown
2:15 PM 82.4 °F 82.5 °F 59.0 °F 45% 29.96 in 10.0 mi NE 8.1 mph - N/A   Unknown
2:35 PM 82.4 °F 82.5 °F 59.0 °F 45% 29.95 in 10.0 mi NE 9.2 mph - N/A   Unknown
2:55 PM 84.2 °F 83.8 °F 59.0 °F 42% 29.93 in 10.0 mi NNE 10.4 mph - N/A   Unknown
3:15 PM 82.4 °F 82.0 °F 57.2 °F 42% 29.93 in 10.0 mi NNE 8.1 mph 16.1 mph N/A   Unknown
3:35 PM 86.0 °F 84.5 °F 55.4 °F 35% 29.92 in 10.0 mi ENE 8.1 mph - N/A   Unknown
3:55 PM 84.2 °F 82.8 °F 53.6 °F 35% 29.92 in 10.0 mi East 10.4 mph 16.1 mph N/A   Unknown
4:15 PM 86.0 °F 84.2 °F 53.6 °F 33% 29.91 in 10.0 mi NE 10.4 mph - N/A   Unknown
4:35 PM 84.2 °F 83.5 °F 57.2 °F 40% 29.91 in 10.0 mi NNE 6.9 mph 10.4 mph N/A   Unknown
4:55 PM 84.2 °F 83.5 °F 57.2 °F 40% 29.91 in 10.0 mi NNE 9.2 mph - N/A   Unknown
5:15 PM 82.4 °F 81.7 °F 55.4 °F 39% 29.91 in 10.0 mi NE 8.1 mph - N/A   Unknown
5:35 PM 82.4 °F 81.7 °F 55.4 °F 39% 29.90 in 10.0 mi NNE 9.2 mph - N/A   Unknown
5:55 PM 80.6 °F 80.8 °F 57.2 °F 45% 29.90 in 10.0 mi NNE 9.2 mph - N/A   Unknown
6:15 PM 80.6 °F 80.8 °F 57.2 °F 45% 29.90 in 10.0 mi NNE 8.1 mph - N/A   Unknown
6:35 PM 78.8 °F - 59.0 °F 51% 29.90 in 10.0 mi NNE 5.8 mph - N/A   Unknown
6:55 PM 77.0 °F - 59.0 °F 54% 29.90 in 10.0 mi North 4.6 mph - N/A   Unknown
7:15 PM 77.0 °F - 59.0 °F 54% 29.91 in 10.0 mi North 4.6 mph - N/A   Unknown
7:35 PM 73.4 °F - 59.0 °F 61% 29.91 in 10.0 mi North 5.8 mph - N/A   Unknown
7:55 PM 73.4 °F - 59.0 °F 61% 29.92 in 10.0 mi North 5.8 mph - N/A   Unknown
8:15 PM 73.4 °F - 59.0 °F 61% 29.91 in 10.0 mi North 4.6 mph - N/A   Unknown
8:35 PM 73.4 °F - 59.0 °F 61% 29.91 in 10.0 mi NNW 4.6 mph - N/A   Unknown
8:55 PM 71.6 °F - 59.0 °F 64% 29.91 in 10.0 mi North 4.6 mph - N/A   Unknown
9:15 PM 71.6 °F - 59.0 °F 64% 29.91 in 10.0 mi North 3.5 mph - N/A   Unknown
9:35 PM 66.2 °F - 59.0 °F 78% 29.90 in 10.0 mi North 3.5 mph - N/A   Unknown
9:55 PM 66.2 °F - 59.0 °F 78% 29.90 in 10.0 mi North 3.5 mph - N/A   Unknown
10:15 PM 66.2 °F - 59.0 °F 78% 29.90 in 10.0 mi Calm Calm - N/A   Unknown
10:35 PM 66.2 °F - 59.0 °F 78% 29.90 in 10.0 mi North 3.5 mph - N/A   Unknown
10:55 PM 69.8 °F - 59.0 °F 68% 29.90 in 10.0 mi North 4.6 mph - N/A   Unknown
11:35 PM 68.0 °F - 59.0 °F 73% 29.90 in 10.0 mi North 5.8 mph - N/A   Unknown
11:55 PM 68.0 °F - 59.0 °F 73% 29.90 in 10.0 mi North 5.8 mph - N/A   Unknown